Tracking 25689 objects as of 7-Jul-2022
HD Live streaming from Space Station
objects crossing your sky now

FENGYUN 1C DEB

Track FENGYUN 1C DEB now!
10-day predictions


NORAD ID: 37423
Int'l Code: 1999-025EGR
Perigee: 852.8 km
Apogee: 929.2 km
Inclination: 98.9 °
Period: 102.6 minutes
Semi major axis: 7262 km
RCS: 0.0095 m2 (small)
Launch date: May 10, 1999
Source: People's Republic of China (PRC)
Launch site: Taiyaun Space Center, China (TSC)

Note: This is SATELLITE DEBRIS
aabbcc
Your satellite tracking list
Your tracking list is empty




NASA's NSSDC Master Catalog

Two Line Element Set (TLE):
1 37423U 99025EGR 22187.02652384  .00000524  00000-0  36167-3 0  9991
2 37423  98.9050 252.5860 0052619  76.0774 284.6237 14.02871423459770
Source of the keplerian elements: AFSPC